Regional Weather Roundup
Issued by NWS

Home | Current Version | Previous Version | Graphics & Text | Print | Product List | Glossary On
Versions: 1 2 3 4 5 6 7 8 9 10 11 12 13 14 15 16 17 18 19 20 21 22 23 24 25 26 27 28 29 30 31 32 33 34 35 36 37 38 39 40 41 42 43 44 45 46 47 48 49 50
000
ASUS45 KBOU 252107
RWRCO

WEATHER ROUNDUP FOR COLORADO
NATIONAL WEATHER SERVICE DENVER/BOULDER CO
300 PM MDT MON JUL 25 2016

NOTE: "FAIR" INDICATES FEW OR NO CLOUDS BELOW 12000 FEET WITH NO
SIGNIFICANT WEATHER AND/OR OBSTRUCTIONS TO VISIBILITY.

COZ001>005-013-030-031-252200-
...NORTHWEST COLORADO...

CITY           SKY/WX    TMP DP  RH WIND       PRES   REMARKS
CRAIG          FAIR      95  20   6 NW10      30.22F
HAYDEN         FAIR      90  28  11 W7G17     30.25F
MEEKER         FAIR      81  37  20 S18G26    30.24S
MOUNT WERNER   NOT AVBL
STEAMBOAT SPGS FAIR      87  29  12 W12       30.28S
WALDEN         FAIR      79  23  12 W14G20    30.40S
$$

COZ006>008-011-252200-
...WEST CENTRAL VALLEYS...

CITY           SKY/WX    TMP DP  RH WIND       PRES   REMARKS
GRAND JUNCTION FAIR      97  40  14 W9        30.08F
MONTROSE       FAIR      91  42  18 NW15      30.20S
EAGLE          PTSUNNY   86  30  13 S7        30.27F
RIFLE          FAIR      97  30   9 NW10      30.15F
DELTA          FAIR      96  37  12 S8        30.13F
NUCLA          FAIR     N/A N/A N/A NE8       30.22F
$$

COZ017>023-064>068-252200-
...SOUTHWEST COLORADO...

CITY           SKY/WX    TMP DP  RH WIND       PRES   REMARKS
DURANGO        FAIR      90  33  13 VRB7      30.24F
CORTEZ         FAIR      89  46  22 SW9       30.19F
PAGOSA SPRINGS FAIR      82  30  15 N12G25    30.36S
TELLURIDE      CLOUDY    64  45  49 CALM      30.55F
WOLF CREEK PAS CLOUDY    55  36  47 NE18      30.76S
$$

COZ009-010-012-014-032>034-037-058>063-252200-
...CENTRAL COLORADO...

CITY           SKY/WX    TMP DP  RH WIND       PRES   REMARKS
ASPEN          PTSUNNY   77  42  28 SE13G23   30.37F
BUENA VISTA    CLOUDY    73  35  24 NW22G35   30.43R
COPPER MTN     CLOUDY    64  28  25 S15       30.74F
BERTHOUD PASS  FAIR      59  45  58 NE8G20    30.78S
COTTONWOOD PAS LGT RAIN  68  32  26 CALM      30.59R
GUNNISON       FAIR      75  37  25 N14G26    30.40R
KREMMLING      FAIR      88  23   9 CALM      30.34F
LEADVILLE      FAIR      64  34  32 S13       30.58F
MONARCH PASS   CLOUDY    59  34  38 MISG      30.84S
SALIDA         FAIR      81  35  19 N12G20    30.44S
SUNLIGHT       FAIR      68  36  30 CALM      30.66F
WILKERSON PASS PTSUNNY   61  32  33 N10G25    30.71R
$$

COZ069>075-252200-
...SAN LUIS VALLEY/SANGRE DE CRISTO MOUNTAINS...

CITY           SKY/WX    TMP DP  RH WIND       PRES   REMARKS
ALAMOSA        FAIR      87  22   9 W6G17     30.32F
LA VETA PASS   PTSUNNY   72  32  23 NE10G25   30.56F
SAGUACHE       FAIR      79  36  21 SW5       30.38F
$$

COZ035-036-038>040-252200-
...NORTHERN COLORADO FRONT RANGE...

CITY           SKY/WX    TMP DP  RH WIND       PRES   REMARKS
DENVER INTL AP FAIR      96  49  20 N10G18    30.13F
DMNS CITY PARK   N/A     90  52  27 N7G13     30.13F
AURORA         MOSUNNY   93  56  28 NW15      30.15F
FRONT RANGE AP MOSUNNY   93  41  16 SW3       30.14F
ERIE MUNI ARPT FAIR      82  56  41 NW8       30.14S
BOULDER MUN AP FAIR      84  54  34 N3        30.17S
CENTENNIAL     PTSUNNY   90  33  13 S14G24    30.18F
BROOMFIELD     PTSUNNY   88  55  33 NW15      30.19F
LONGMONT       FAIR      88  55  32 CALM      30.17S
$$

COZ041-046-047-076>085-087-088-252200-
...PIKES PEAK/PALMER DIVIDE AND SOUTHERN FOOTHILLS...

CITY           SKY/WX    TMP DP  RH WIND       PRES   REMARKS
COLO. SPRINGS  FAIR      88  46  23 S16G23    30.23F
A. F. ACADEMY  PTSUNNY   85  38  19 N5G18     30.27R
SCHRIEVER AFB  NOT AVBL
ELLICOTT       FAIR     N/A N/A N/A S20G28    30.23F
FALCON         FAIR      85  45  24 SE7G20    30.30F
FORT CARSON    FAIR      90  48  23 VRB5      30.18F
LIMON          FAIR      86  55  34 SE18G32   30.19F
MONUMENT HILL  FAIR      79  36  21 W5G21     30.32F
TRINIDAD       NOT AVBL
$$

COZ042>045-048>051-090-091-252200-
...NORTHEAST COLORADO...

CITY           SKY/WX    TMP DP  RH WIND       PRES   REMARKS
GREELEY ARPT   FAIR      90  59  35 SE8G16    30.12F
AKRON          FAIR      83  60  45 SE25G32   30.15F
BURLINGTON     FAIR      80  63  55 SE20      30.17F
WRAY           FAIR      88  61  40 SE17G26   30.13S
STERLING       FAIR      88  63  42 SE15G23   30.10F
HOLYOKE        NOT AVBL
FORT MORGAN    FAIR      89  57  33 E16G23    30.12F
$$

COZ086-089-092>099-252200-
...SOUTHEAST COLORADO...

CITY           SKY/WX    TMP DP  RH WIND       PRES   REMARKS
PUEBLO         FAIR      95  55  26 SE17G25   30.10F
LA JUNTA       FAIR      92  60  34 E17       30.09F
LAMAR          FAIR      88  64  44 SE17G25   30.10F
SPRINGFIELD      N/A     84  62  47 SE14G22   30.16F
$$



USA.gov is the U.S. government's official web portal to all federal, state and local government web resources and services.